Location: DARK SKY Beskydy - Park tmavé oblohy, www.darkskybeskydy.cz
(49.4926°N, 18.5016°E)
Time: 18:01:01
(UTC+02:00)

PCSat - Pass Details

Date: 06 August 2024
Orbit: 781 x 793 km, 67.1° (Epoch: 08 September)

Event Time Altitude Azimuth Distance (km) Brightness Sun altitude
Rises 03:10:07 0° 324° (NW) 3,301 13.0 -17.2°
Reaches altitude 10° 03:12:33 10° 324° (NW) 2,368 12.3 -17.0°
Maximum altitude 03:18:00 90° 41° (NE) 799 9.5 -16.4°
Drops below altitude 10° 03:23:25 10° 146° (SE) 2,352 11.8 -15.9°
Sets 03:25:49 0° 147° (SSE) 3,277 12.6 -15.7°
